Theta_e
322 330 336 337 335 335 344 343 346 351 352 353 353 352 350 348 346 345 346 346 347 347 348 348 348 349 349 349 349 348 349 343 342 347 346 346 346 347 347 346 344 339 343 342
327 331 333 337 331 332 338 338 347 351 352 353 351 353 353 350 345 342 345 344 347 347 348 349 349 349 350 350 350 350 350 345 342 347 348 347 347 347 347 348 348 348 345 340
324 328 333 330 330 333 333 335 347 347 351 351 353 356 355 352 349 344 344 344 345 348 348 350 350 349 350 351 350 350 350 348 341 346 347 342 347 345 343 348 348 348 348 344
326 328 331 332 333 333 337 330 342 349 349 352 351 359 356 354 353 347 346 343 343 345 348 348 350 350 350 351 351 350 349 344 342 342 348 347 346 347 348 347 348 348 348 348
330 329 329 330 330 330 334 328 332 338 338 341 348 347 352 353 355 352 349 345 345 344 346 348 348 350 351 351 350 348 350 343 345 345 347 346 349 347 347 348 348 349 348 349
327 327 327 328 329 328 330 330 334 337 337 339 339 344 354 354 353 352 349 348 346 345 345 347 348 349 350 351 351 349 349 344 344 344 344 345 346 349 349 349 349 349 348 348
326 326 326 325 326 326 331 334 339 339 340 338 340 343 343 348 348 348 351 349 347 346 343 346 348 349 350 350 351 349 350 348 347 348 345 344 344 349 349 347 349 348 348 348
327 327 325 325 326 327 332 335 337 340 340 339 344 343 344 345 346 348 349 349 348 348 345 344 348 350 351 350 351 350 351 345 349 348 348 344 344 344 345 349 349 348 347 350
325 324 324 324 325 327 328 332 333 334 336 339 345 342 350 347 347 347 348 349 349 349 346 344 344 349 349 350 351 351 351 351 351 350 347 345 343 345 345 348 346 350 349 346
326 327 326 324 326 326 328 330 330 332 339 339 342 343 343 352 349 349 349 350 349 348 345 346 346 348 349 349 349 351 351 352 351 350 350 350 350 343 344 344 345 349 350 349
327 327 328 328 327 327 327 329 330 329 331 336 338 341 348 349 348 350 349 349 349 349 348 347 348 349 350 350 349 350 351 352 351 349 350 350 350 348 345 345 343 343 343 344
327 327 329 328 327 327 329 327 329 331 334 335 336 344 346 348 346 348 348 349 349 348 348 348 348 349 351 351 349 350 352 351 351 351 350 350 349 349 345 344 344 345 344 342
327 327 329 328 327 327 328 328 328 330 331 333 333 333 346 346 346 347 348 348 348 347 348 348 348 349 349 350 350 351 352 352 352 352 351 350 347 349 349 346 345 345 345 344
322 326 327 327 329 328 328 327 327 328 330 330 333 335 347 348 347 346 346 346 347 348 348 348 348 349 349 349 343 343 345 347 347 351 351 351 349 346 346 347 343 343 344 345
324 327 327 325 325 324 326 327 328 330 328 330 330 333 334 346 347 345 344 344 345 346 345 346 347 347 342 342 343 344 343 344 343 344 345 345 342 341 342 344 343 341 343 347
322 325 326 326 325 325 325 325 328 330 331 332 332 335 341 344 345 343 344 343 344 343 343 344 344 341 340 341 342 344 343 343 343 341 343 343 343 343 343 343 343 341 345 350
324 324 326 326 326 326 327 326 327 331 335 335 336 342 342 345 343 342 342 342 342 342 342 343 343 341 342 343 343 342 341 340 340 340 340 340 338 337 337 337 339 340 342 343
324 325 324 325 327 328 327 327 327 329 333 337 337 338 339 342 341 340 340 340 339 339 337 339 339 340 342 341 341 340 338 335 334 336 338 337 335 334 335 337 342 343 344 344
324 326 325 324 324 324 325 326 327 328 328 328 329 336 340 339 338 339 340 340 339 337 335 337 338 339 340 340 340 339 337 331 331 334 334 335 337 336 337 339 340 341 342 342
323 325 325 325 324 324 327 324 324 326 328 329 333 337 337 338 341 338 337 337 336 331 334 334 334 335 336 336 338 338 335 330 332 332 334 335 336 336 337 337 337 337 336 336
322 323 323 324 324 323 324 323 323 327 330 329 335 337 337 337 338 334 332 332 331 329 331 331 330 330 330 330 333 334 330 331 330 331 332 332 331 332 332 331 332 330 332 333
321 321 321 321 321 322 324 325 325 330 328 328 334 337 338 335 334 330 327 329 332 331 329 328 327 325 323 323 326 328 328 325 322 320 324 325 319 319 319 320 321 323 325 327
324 321 323 320 324 325 325 326 327 328 330 331 334 336 334 334 332 327 329 330 330 328 324 324 323 320 317 317 314 316 317 316 313 311 312 312 313 313 314 315 316 318 320 324
323 321 322 324 324 324 324 325 325 329 331 330 334 333 332 333 331 329 327 324 328 328 322 320 318 313 311 310 309 308 308 308 307 307 307 307 308 308 309 310 311 312 313 315
323 323 324 324 325 323 323 324 324 327 330 330 331 331 331 330 329 327 324 322 320 319 317 315 312 310 310 308 306 304 304 304 304 304 304 305 305 305 305 305 306 307 307 309
321 323 323 322 325 324 325 323 323 324 327 328 328 329 329 329 326 323 320 322 320 316 316 316 314 312 309 307 305 304 303 303 306 306 307 308 306 306 305 305 305 305 305 305
Wind_Speed
16 10 16 16 13 7 4 5 9 9 11 14 14 10 23 21 19 13 15 19 20 18 15 14 13 12 12 13 14 14 14 13 14 10 10 9 9 9 8 8 10 8 8 5
10 15 16 4 5 9 9 8 10 6 10 7 8 10 20 26 29 27 20 26 19 19 15 14 14 14 13 13 14 14 14 13 14 10 11 11 10 9 8 9 10 8 9 8
15 15 7 10 11 11 8 7 9 7 10 4 8 7 14 16 22 25 22 15 15 13 18 17 16 16 15 13 14 15 14 14 14 12 12 14 11 12 12 10 10 8 10 10
10 6 11 13 12 11 11 5 4 11 13 5 14 5 13 16 17 27 29 31 25 22 18 19 18 18 17 15 13 14 15 14 14 13 12 13 12 11 11 11 12 10 10 10
7 10 12 12 11 8 2 3 7 7 7 5 11 8 14 17 15 19 27 30 29 26 19 18 19 19 16 15 14 13 15 16 15 13 12 12 10 10 8 10 11 11 12 11
12 8 7 8 7 9 1 7 6 5 5 9 8 11 12 16 21 20 28 31 30 29 23 17 18 18 18 16 15 14 15 17 16 15 11 12 11 10 9 9 10 10 9 11
8 13 9 5 9 8 12 12 8 9 8 9 7 7 6 13 9 23 26 31 33 25 25 17 18 21 19 19 17 15 15 16 15 15 12 12 10 9 9 8 9 12 11 11
12 15 14 13 11 8 14 17 11 11 10 11 8 6 2 7 6 12 24 30 32 25 24 23 18 20 21 19 18 17 16 16 14 15 13 11 11 11 11 9 9 8 10 12
8 7 8 13 11 13 14 16 15 14 11 8 10 8 6 7 8 13 17 27 31 27 25 22 21 19 19 20 19 19 17 16 15 15 13 13 11 9 9 10 12 9 10 11
5 7 9 12 9 12 12 8 15 10 13 14 7 8 4 10 10 12 16 26 31 28 27 19 18 18 20 20 19 18 18 17 16 15 13 12 11 11 10 9 9 10 12 11
3 8 11 10 13 15 12 12 8 15 15 12 13 8 6 5 8 12 16 23 28 29 28 22 16 16 17 17 17 18 18 17 17 17 15 14 11 11 10 10 11 11 11 13
3 7 9 11 6 5 9 15 16 11 14 10 14 4 5 6 6 10 14 21 24 30 27 21 16 14 13 14 16 18 17 17 17 16 17 14 13 12 12 11 10 12 14 13
2 6 7 7 9 6 10 6 11 10 13 11 14 12 5 8 7 10 14 15 19 23 26 25 17 16 15 12 12 14 16 16 17 18 17 15 15 13 12 12 12 8 15 13
3 7 10 6 7 1 9 8 7 13 12 14 12 8 8 11 11 13 13 15 16 15 20 20 17 16 12 14 14 15 17 17 19 17 18 16 14 16 15 14 14 12 11 12
4 9 5 7 4 2 2 6 6 12 16 14 10 12 9 11 12 15 15 15 16 16 16 15 15 14 12 12 11 13 20 22 20 21 21 21 20 19 20 17 16 15 14 13
2 6 8 9 4 5 8 6 7 5 6 9 10 7 5 11 12 15 15 17 16 16 14 14 14 12 10 9 12 14 17 22 26 25 21 21 20 20 19 19 18 18 16 14
3 2 7 11 6 7 11 6 1 2 3 4 8 8 3 10 12 15 15 13 12 11 11 10 11 12 12 13 16 20 23 22 23 21 22 20 17 14 12 12 15 19 18 18
4 6 4 9 5 13 7 4 4 4 5 1 5 5 3 8 11 13 14 13 10 8 8 10 10 12 16 16 18 15 13 4 9 12 16 21 19 13 8 7 6 11 16 17
4 7 4 8 10 10 5 4 4 6 2 5 5 1 7 13 14 12 13 13 12 12 11 12 14 17 19 20 21 21 14 13 15 13 12 10 13 10 9 10 8 8 9 11
3 6 7 4 10 7 11 6 4 4 9 7 6 3 13 17 8 3 14 15 16 14 13 13 14 17 21 25 28 24 19 17 16 14 12 9 14 14 9 11 12 10 10 10
9 8 11 9 8 3 5 7 3 9 3 9 5 2 15 12 7 21 17 17 16 17 18 17 16 17 17 18 21 27 24 17 15 15 13 12 12 12 11 8 10 11 11 10
8 8 7 7 7 11 5 3 7 7 6 6 2 4 14 5 14 19 19 21 21 22 23 22 21 19 18 16 14 16 15 15 13 11 12 11 9 10 12 12 11 10 8 7
5 4 5 4 4 5 5 4 5 7 8 7 2 5 9 17 20 21 23 23 21 21 17 19 17 17 16 14 9 11 10 9 10 11 11 12 11 10 10 10 9 9 10 8
4 3 4 3 6 5 4 3 6 7 7 3 3 10 12 18 18 22 20 19 22 19 18 17 16 15 13 11 12 9 11 11 11 10 9 10 10 10 9 8 9 9 7 7
3 4 5 4 4 4 5 4 5 7 7 8 8 10 12 16 20 22 24 22 16 15 15 14 13 13 12 11 10 10 9 9 9 9 9 8 7 7 7 7 8 7 7 7
7 5 5 4 6 4 9 4 4 6 8 9 9 11 12 16 21 25 23 26 12 6 11 10 10 10 9 8 7 7 7 7 6 6 6 6 6 6 5 5 5 6 6 5
Wind_Direction
189 205 210 197 214 335 182 194 165 107 157 178 190 163 163 170 165 201 203 198 183 182 173 173 175 175 177 180 181 180 179 183 184 177 172 176 172 174 172 179 183 175 173 163
169 219 204 211 193 217 196 187 139 118 155 217 165 158 165 172 178 191 197 206 201 182 184 189 188 188 187 190 189 191 191 193 184 187 182 181 185 190 187 185 187 182 187 183
193 199 142 208 198 207 204 219 150 144 168 211 166 148 164 183 186 186 204 202 205 216 191 197 198 196 193 197 198 194 194 199 199 195 200 203 197 197 195 192 195 202 190 189
210 124 190 204 215 223 199 164 151 144 179 186 210 163 194 179 185 191 194 199 212 212 205 197 201 201 200 196 200 197 195 198 198 198 200 203 209 206 205 194 195 197 200 204
140 169 193 197 201 207 52 167 202 178 223 181 196 266 148 178 198 197 196 204 208 212 212 213 204 203 201 197 197 197 195 199 199 201 190 203 201 209 222 201 209 194 206 208
125 185 187 210 213 219 180 193 187 200 240 231 199 235 154 184 203 203 197 202 206 204 205 207 212 199 198 199 193 194 197 206 207 207 206 200 202 191 198 198 197 201 203 204
162 173 173 210 192 195 210 204 197 217 205 239 122 218 302 172 195 205 196 201 200 199 203 203 202 198 197 198 194 198 196 206 210 206 212 209 208 209 209 201 202 192 193 201
205 188 191 187 227 183 212 218 229 207 228 223 145 234 164 174 172 199 200 200 197 193 198 199 202 194 195 197 198 198 202 206 207 207 212 213 213 218 223 192 201 195 191 197
203 213 172 179 203 224 191 233 263 291 271 250 168 191 168 178 198 194 202 197 194 187 186 194 203 199 198 195 198 198 202 203 205 208 211 217 221 214 208 199 208 196 199 194
197 184 194 177 208 216 266 222 220 232 259 224 196 232 246 191 194 187 191 192 191 187 189 194 198 198 197 198 196 197 201 208 210 209 212 215 221 227 233 222 206 211 191 188
257 269 151 177 205 193 195 229 243 263 231 255 235 200 92 174 180 182 185 185 182 190 186 187 188 183 196 197 199 199 201 205 209 214 210 214 214 217 229 246 224 217 210 207
195 258 176 182 71 306 274 219 223 224 222 257 290 33 113 134 174 178 179 181 184 188 184 179 180 179 183 193 197 196 203 201 205 207 211 215 216 216 224 217 232 231 208 208
164 247 212 180 180 173 221 203 256 259 265 254 230 248 147 157 168 172 176 169 174 182 191 195 188 187 191 199 191 197 200 201 200 203 202 210 221 214 221 222 224 228 210 208
271 287 289 298 11 1 186 209 230 249 233 237 235 234 162 172 173 166 169 175 176 178 182 191 197 199 196 205 219 220 218 208 201 197 196 201 208 221 219 225 225 221 211 211
279 262 268 299 331 320 306 250 227 239 250 275 280 225 231 173 180 171 165 150 153 162 172 184 191 196 200 196 217 222 216 202 191 199 196 203 219 223 224 229 229 226 223 222
244 249 255 232 219 224 249 247 254 225 268 260 279 255 9 151 158 168 173 165 165 168 171 175 178 181 191 187 195 214 210 212 221 217 200 202 211 219 225 229 232 228 218 216
252 212 227 240 197 236 234 213 272 269 254 321 261 37 93 151 174 175 169 165 170 168 169 169 167 177 170 172 189 191 184 183 179 184 184 183 175 176 194 217 229 227 217 215
251 250 260 269 188 226 91 91 10 1 46 307 292 332 238 175 166 159 170 159 155 176 171 195 197 190 187 184 181 181 180 193 168 205 191 198 201 205 213 229 219 215 216 211
242 245 214 264 235 246 182 106 2 331 1 11 349 65 113 133 134 167 176 171 167 164 181 186 193 196 196 186 186 185 174 179 172 164 161 176 193 207 225 213 194 183 191 191
222 244 265 246 272 254 61 54 352 298 246 25 7 124 149 151 177 151 152 151 144 148 157 165 175 183 185 177 176 183 181 176 180 187 198 201 202 203 199 184 180 208 199 190
210 234 240 217 238 236 69 351 319 236 52 357 350 154 171 190 317 167 152 140 137 135 138 138 140 148 151 156 164 168 164 158 152 154 157 162 153 155 166 176 168 184 179 172
246 230 224 257 271 257 39 217 287 1 318 338 317 186 175 161 130 143 146 142 144 143 138 132 129 124 117 119 128 137 148 146 140 142 143 139 148 148 147 151 160 159 145 158
243 293 307 280 55 90 66 52 4 341 318 309 300 176 159 148 145 147 152 145 143 141 137 139 134 128 127 119 120 132 138 155 154 155 156 163 164 169 167 168 167 166 160 139
193 220 250 253 141 140 100 77 24 16 12 18 161 159 155 148 150 144 144 143 154 156 154 145 145 141 137 143 149 144 164 171 174 174 171 173 170 178 177 180 185 180 176 181
355 183 205 225 166 172 159 90 45 44 60 84 114 145 155 151 151 151 144 134 140 154 154 152 150 145 146 149 147 151 148 161 162 160 164 164 168 171 177 190 194 200 207 205
203 235 227 280 114 240 128 137 99 76 81 90 117 136 148 159 163 156 151 153 147 156 157 154 153 153 141 137 139 139 145 152 147 140 140 142 140 144 149 166 171 173 171 178